JA6YCL-13 Weather Reports


Display with metric or nautical units.
time (UTC)temp
F
wind
direction
speed
MPH
gust
MPH
rain 1hr
in
rain 24hr
in
rain mn
in
humidity
%
barometer
mb
20260507065831 74 126 3.0 7.0 0.00 0.00 0.00 67 1011.0
20260507064333 74 122 4.0 9.0 0.00 0.00 0.00 67 1010.9
20260507063007 75 116 4.0 8.0 0.00 0.00 0.00 65 1011.0
20260507061743 75 101 5.0 9.0 0.00 0.00 0.00 65 1010.9
20260507060458 75 104 6.0 9.0 0.00 0.00 0.00 65 1011.0
20260507055008 75 81 3.0 8.0 0.00 0.00 0.00 64 1011.3
20260507053753 76 79 5.0 7.0 0.00 0.00 0.00 63 1011.3
20260507052538 76 107 7.0 10.0 0.00 0.00 0.00 62 1011.5
20260507051123 77 90 6.0 10.0 0.00 0.00 0.00 61 1011.5
20260507045803 77 99 6.0 9.0 0.00 0.00 0.00 61 1011.6
20260507044316 77 41 4.0 7.0 0.00 0.00 0.00 60 1011.4
20260507042842 77 12 4.0 8.0 0.00 0.00 0.00 60 1011.7
20260507041533 78 22 3.0 6.0 0.00 0.00 0.00 59 1011.6
20260507040333 79 346 5.0 10.0 0.00 0.00 0.00 56 1011.7
20260507035008 78 64 4.0 8.0 0.00 0.00 0.00 57 1012.0
20260507033648 78 76 4.0 9.0 0.00 0.00 0.00 57 1012.0
20260507032450 78 28 5.0 8.0 0.00 0.00 0.00 56 1012.0
20260507031213 79 106 5.0 13.0 0.00 0.00 0.00 53 1012.2
20260507025848 80 60 2.0 4.0 0.00 0.00 0.00 50 1012.4
20260507024423 79 166 3.0 8.0 0.00 0.00 0.00 51 1012.6
20260507022928 78 310 2.0 6.0 0.00 0.00 0.00 52 1012.9
20260507021435 76 301 2.0 4.0 0.00 0.00 0.00 54 1013.2
20260507020018 75 103 3.0 6.0 0.00 0.00 0.00 56 1013.5
20260507014753 75 32 3.0 4.0 0.00 0.00 0.00 56 1013.5
20260507013333 75 63 1.0 3.0 0.00 0.00 0.00 56 1013.8
20260507012018 74 35 2.0 4.0 0.00 0.00 0.00 59 1014.0
20260507010533 73 44 2.0 4.0 0.00 0.00 0.00 60 1014.1
20260507005242 72 195 1.0 4.0 0.00 0.00 0.00 61 1014.5
20260507003833 72 82 2.0 4.0 0.00 0.00 0.00 61 1014.5
20260507002618 71 357 1.0 3.0 0.00 0.00 0.00 63 1014.8
20260507001213 69 331 1.0 3.0 0.00 0.00 0.00 64 1015.1
20260506235833 70 97 2.0 6.0 0.00 0.00 0.00 63 1015.0
20260506234453 68 77 1.0 3.0 0.00 0.00 0.00 65 1015.2
20260506233017 66 286 0.0 1.0 0.00 0.00 0.00 68 1015.4
20260506231758 65 266 1.0 3.0 0.00 0.00 0.00 70 1015.7
20260506230343 65 299 1.0 2.0 0.00 0.00 0.00 70 1015.6
20260506225054 65 275 0.0 1.0 0.00 0.00 0.00 71 1015.6
20260506223813 65 57 1.0 2.0 0.00 0.00 0.00 71 1015.6
20260506222530 63 101 1.0 2.0 0.00 0.00 0.00 74 1015.7
20260506221141 62 106 1.0 3.0 0.00 0.00 0.00 77 1015.8
20260506215853 61 250 0.0 1.0 0.00 0.00 0.00 77 1015.9
20260506214549 59 246 0.0 2.0 0.00 0.00 0.00 82 1016.1
20260506213108 57 271 1.0 2.0 0.00 0.00 0.00 86 1016.0
20260506211853 56 47 1.0 2.0 0.00 0.00 0.00 88 1015.8
20260506210503 56 148 1.0 2.0 0.00 0.00 0.00 89 1015.7
20260506205238 55 256 0.0 1.0 0.00 0.00 0.00 91 1015.6
20260506203901 55 222 0.0 0.0 0.00 0.00 0.00 92 1015.6
20260506202628 55 221 1.0 2.0 0.00 0.00 0.00 92 1015.7
20260506201418 55 243 1.0 2.0 0.00 0.00 0.00 92 1015.5
20260506200137 55 239 1.0 1.0 0.00 0.00 0.00 92 1015.6
20260506194713 55 242 0.0 4.0 0.00 0.00 0.00 91 1015.6
20260506193318 55 249 0.0 1.0 0.00 0.00 0.00 91 1015.7
20260506191908 55 246 1.0 2.0 0.00 0.00 0.00 92 1015.8
20260506190443 55 247 0.0 1.0 0.00 0.00 0.00 92 1016.1
20260506185028 55 247 1.0 1.0 0.00 0.00 0.00 92 1016.3
20260506183808 55 244 2.0 2.0 0.00 0.00 0.00 91 1016.3
20260506182411 56 241 1.0 2.0 0.00 0.00 0.00 91 1016.3
20260506181143 56 244 3.0 4.0 0.00 0.00 0.00 91 1016.3
20260506175938 56 240 2.0 3.0 0.00 0.00 0.00 91 1016.2
20260506174643 56 238 2.0 4.0 0.00 0.00 0.00 92 1016.1
20260506173238 56 237 2.0 3.0 0.00 0.00 0.00 91 1016.3
20260506171803 56 231 0.0 2.0 0.00 0.00 0.00 90 1016.5
20260506170353 56 241 3.0 6.0 0.00 0.00 0.00 91 1016.6
20260506164915 56 243 2.0 3.0 0.00 0.00 0.00 90 1016.6
20260506163518 56 236 1.0 3.0 0.00 0.00 0.00 91 1016.5
20260506162306 56 283 1.0 2.0 0.00 0.00 0.00 91 1016.6
20260506160948 57 253 1.0 2.0 0.00 0.00 0.00 91 1016.7
20260506155633 57 241 0.0 0.0 0.00 0.00 0.00 90 1016.9
20260506154251 57 243 0.0 1.0 0.00 0.00 0.00 89 1017.1
20260506152803 58 244 1.0 1.0 0.00 0.00 0.00 88 1017.6
20260506151343 58 250 1.0 2.0 0.00 0.00 0.00 87 1017.6
20260506150136 58 226 1.0 2.0 0.00 0.00 0.00 86 1017.6
20260506144841 58 236 2.0 3.0 0.00 0.00 0.00 87 1017.8
20260506143619 58 234 1.0 3.0 0.00 0.00 0.00 86 1018.0
20260506142243 58 224 1.0 1.0 0.00 0.00 0.00 85 1017.9
20260506140818 59 272 1.0 2.0 0.00 0.00 0.00 82 1017.6
20260506135423 59 231 1.0 2.0 0.00 0.00 0.00 82 1017.8
20260506133948 60 279 1.0 2.0 0.00 0.00 0.00 80 1017.6
20260506132448 60 281 1.0 3.0 0.00 0.00 0.00 80 1017.7
20260506131223 61 211 0.0 1.0 0.00 0.00 0.00 79 1017.7
20260506125800 62 262 1.0 3.0 0.00 0.00 0.00 75 1017.7
20260506124445 63 293 1.0 2.0 0.00 0.00 0.00 72 1017.7
20260506123208 63 276 0.0 1.0 0.00 0.00 0.00 71 1017.7
20260506121715 63 258 1.0 2.0 0.00 0.00 0.00 71 1017.6
20260506120234 63 271 1.0 2.0 0.00 0.00 0.00 67 1017.4
20260506114801 63 199 1.0 1.0 0.00 0.00 0.00 67 1017.3
20260506113503 63 161 0.0 0.0 0.00 0.00 0.00 64 1017.1
20260506112103 64 161 0.0 1.0 0.00 0.00 0.00 62 1017.2
20260506110833 65 160 0.0 1.0 0.00 0.00 0.00 59 1016.9
20260506105538 66 161 0.0 1.0 0.00 0.00 0.00 56 1016.9
20260506104118 66 165 0.0 1.0 0.00 0.00 0.00 53 1016.6
20260506102733 67 151 0.0 1.0 0.00 0.00 0.00 51 1016.7
20260506101523 67 168 1.0 3.0 0.00 0.00 0.00 49 1016.5
20260506100117 68 129 1.0 4.0 0.00 0.00 0.00 47 1016.5
20260506094803 68 106 2.0 7.0 0.00 0.00 0.00 45 1016.4
20260506093553 69 95 2.0 7.0 0.00 0.00 0.00 49 1016.5
20260506092343 69 116 3.0 7.0 0.00 0.00 0.00 49 1016.6
20260506091133 69 133 2.0 4.0 0.00 0.00 0.00 54 1016.6
20260506085849 69 128 3.0 7.0 0.00 0.00 0.00 53 1016.5
20260506084603 69 110 4.0 9.0 0.00 0.00 0.00 57 1016.6
20260506083403 69 110 6.0 10.0 0.00 0.00 0.00 56 1016.7
20260506082118 70 115 4.0 8.0 0.00 0.00 0.00 56 1016.6
20260506080657 70 123 3.0 8.0 0.00 0.00 0.00 58 1016.6
20260506072646 70 117 4.0 8.0 0.00 0.00 0.00 60 1017.0
20260506071238 70 119 5.0 11.0 0.00 0.00 0.00 60 1016.9